CZ-6A DEB, 56256

Orbit data source: Space-Track

CZ-6A DEB, 56256 is space debris in SSO originally from a launch on Fri, 11 Nov 2022 UTC launched from the Taiyaun Space Center, China (TSC). Debris objects in space refer to the collection of defunct objects orbiting the Earth. Examples of debris include non-operational satellites, rocket bodies, and fragments generated from explosions, collisions, or faulty payload assembly.

Loading next visibility...
Identifier
56256, 2022-151ABY
Orbit
SSO
Country
Flag of CNCN / PRC
Related business
Manufacturer
SAST
Mission
Spacecraft
Bus & Motor
Unknown
Mass
Unknown
Launch date (UTC)
2022-11-11 (4 years ago)
Launch vehicle
Unknown
Launch site
Taiyaun Space Center, China (TSC)
Object type
Payload
Rocket body
Debris
Shape & HBR
Unknown shape, 0.1 m
Radar Cross Section
Medium (>0.1 m² and <1 m²)

Expand to show TLE details & history
Last TLE update: 1 day ago

TLE from 1 day ago
0 CZ-6A DEB
1 56256U 22151ABY 26219.41581975  .00001074  00000-0  21969-3 0  9997
2 56256  98.5699 285.4111 0142327  29.9417 330.9825 14.56865133179420
Epoch: 2026-08-07T09:58Z
TLE epoch observation values (Epoch: 2026-08-07T09:58:46.826Z)
Latitude
-0.00005°
Longitude
179.77416°
Altitude
618.473 km
Speed
7.596 km/s
True Right ascension
19h 01m 38s
True Declination
0° 00' 00"
Sunlit
Object was in full shadow at epoch
Visualization orbit readout
Latitude
Unknown
Longitude
Unknown
Altitude
Unknown
Speed
Unknown
Apparent Right ascension
Unknown
Apparent Declination
Unknown
Sunlit
N/A
Visualization observer readout
Local Sidereal Time
00:51:49
Azimuth
Unknown
Elevation
Unknown
Doppler factor
Unknown
Orbital elements
Apogee altitude
801.163 km
Perigee altitude
599.669 km
Semi-major axis
7,078.553 km
Eccentricity
0.01423
Inclination
98.5699°
RAAN
285.4111°
Arg. of periapsis
29.9417°
True anomaly
330.1789°
Mean anomaly
330.9825°
Eccentric anomaly
330.58196°
Mean motion
3.6444 °/min
Orbital period
98.78 mins
BSTAR
0.00021969
Loading maneuver chart data...
Computing Atmospheric mass density...

Documentation

Showing up to 5 results
|